Time,TemperatureF,DewpointF,PressureIn,WindDirection,WindDirectionDegrees,WindSpeedMPH,WindSpeedGustMPH,Humidity,HourlyPrecipIn,Conditions,Clouds,dailyrainin,SoftwareType,DateUTC
2013-02-23 00:02:00,58.0,-99.9,-100.00,NW,326,0.0,0.0,-999,-99.99,,,-99.99,,2013-02-23 06:02:00,
2013-02-23 00:11:00,58.0,-99.9,-100.00,NW,326,0.0,0.0,-999,-99.99,,,-99.99,,2013-02-23 06:11:00,
2013-02-23 00:23:00,58.0,-99.9,-100.00,NW,326,0.0,0.0,-999,-99.99,,,-99.99,,2013-02-23 06:23:00,
2013-02-23 00:32:00,58.0,-99.9,-100.00,NW,326,0.0,0.0,-999,-99.99,,,-99.99,,2013-02-23 06:32:00,
2013-02-23 00:42:00,58.0,-99.9,-100.00,NW,326,0.0,0.0,-999,-99.99,,,-99.99,,2013-02-23 06:42:00,
2013-02-23 00:52:00,58.0,-99.9,-100.00,NW,326,0.0,0.0,-999,-99.99,,,-99.99,,2013-02-23 06:52:00,
2013-02-23 01:01:00,58.0,-99.9,-100.00,NW,326,0.0,0.0,-999,-99.99,,,-99.99,,2013-02-23 07:01:00,
2013-02-23 01:11:00,58.0,-99.9,-100.00,NW,326,0.0,0.0,-999,-99.99,,,-99.99,,2013-02-23 07:11:00,
2013-02-23 01:21:00,58.0,-99.9,-100.00,NW,326,0.0,0.0,-999,-99.99,,,-99.99,,2013-02-23 07:21:00,
2013-02-23 01:32:00,56.0,-99.9,-100.00,NNE,23,0.0,3.0,-999,-99.99,,,-99.99,,2013-02-23 07:32:00,
2013-02-23 01:42:00,56.0,-99.9,-100.00,NNE,23,0.0,3.0,-999,-99.99,,,-99.99,,2013-02-23 07:42:00,
2013-02-23 01:52:00,56.0,-99.9,-100.00,NNE,23,0.0,0.0,-999,-99.99,,,-99.99,,2013-02-23 07:52:00,
2013-02-23 02:01:00,56.0,-99.9,-100.00,NNE,23,0.0,0.0,-999,-99.99,,,-99.99,,2013-02-23 08:01:00,
2013-02-23 02:11:00,56.0,-99.9,-100.00,NNE,23,0.0,0.0,-999,-99.99,,,-99.99,,2013-02-23 08:11:00,
2013-02-23 02:22:00,56.0,-99.9,-100.00,ENE,57,2.0,0.0,-999,-99.99,,,-99.99,,2013-02-23 08:22:00,
2013-02-23 02:32:00,56.0,-99.9,-100.00,NNE,29,0.0,0.0,-999,-99.99,,,-99.99,,2013-02-23 08:32:00,
2013-02-23 02:42:00,56.0,-99.9,-100.00,NNE,29,0.0,0.0,-999,-99.99,,,-99.99,,2013-02-23 08:42:00,
2013-02-23 02:53:00,56.0,-99.9,-100.00,ENE,75,0.0,0.0,-999,-99.99,,,-99.99,,2013-02-23 08:53:00,
2013-02-23 03:02:00,56.0,-99.9,-100.00,ENE,75,0.0,0.0,-999,-99.99,,,-99.99,,2013-02-23 09:02:00,
2013-02-23 03:11:00,56.0,-99.9,-100.00,ENE,75,0.0,0.0,-999,-99.99,,,-99.99,,2013-02-23 09:11:00,
2013-02-23 03:22:00,56.0,-99.9,-100.00,ENE,75,0.0,0.0,-999,-99.99,,,-99.99,,2013-02-23 09:22:00,
2013-02-23 03:32:00,56.0,-99.9,-100.00,ENE,75,0.0,0.0,-999,-99.99,,,-99.99,,2013-02-23 09:32:00,
2013-02-23 03:42:00,56.0,-99.9,-100.00,ENE,75,0.0,0.0,-999,-99.99,,,-99.99,,2013-02-23 09:42:00,
2013-02-23 03:52:00,56.0,-99.9,-100.00,ENE,75,0.0,0.0,-999,-99.99,,,-99.99,,2013-02-23 09:52:00,
2013-02-23 04:01:00,56.0,-99.9,-100.00,ENE,75,0.0,0.0,-999,-99.99,,,-99.99,,2013-02-23 10:01:00,
2013-02-23 04:11:00,56.0,-99.9,-100.00,ENE,75,0.0,0.0,-999,-99.99,,,-99.99,,2013-02-23 10:11:00,
2013-02-23 04:21:00,56.0,-99.9,-100.00,ENE,75,0.0,0.0,-999,-99.99,,,-99.99,,2013-02-23 10:21:00,
2013-02-23 04:32:00,55.0,-99.9,-100.00,North,354,2.0,3.0,-999,-99.99,,,-99.99,,2013-02-23 10:32:00,
2013-02-23 04:42:00,55.0,-99.9,-100.00,North,354,2.0,3.0,-999,-99.99,,,-99.99,,2013-02-23 10:42:00,
2013-02-23 04:52:00,55.0,-99.9,-100.00,North,354,0.0,0.0,-999,-99.99,,,-99.99,,2013-02-23 10:52:00,
2013-02-23 05:02:00,55.0,-99.9,-100.00,NNE,23,2.0,4.0,-999,-99.99,,,-99.99,,2013-02-23 11:02:00,
2013-02-23 05:11:00,55.0,-99.9,-100.00,NNE,23,2.0,4.0,-999,-99.99,,,-99.99,,2013-02-23 11:11:00,
2013-02-23 05:22:00,54.0,-99.9,-100.00,North,7,0.0,0.0,-999,-99.99,,,-99.99,,2013-02-23 11:22:00,
2013-02-23 05:32:00,54.0,-99.9,-100.00,NNE,22,1.0,3.0,-999,-99.99,,,-99.99,,2013-02-23 11:32:00,
2013-02-23 05:42:00,54.0,-99.9,-100.00,NNE,22,1.0,3.0,-999,-99.99,,,-99.99,,2013-02-23 11:42:00,
2013-02-23 05:53:00,54.0,-99.9,-100.00,West,262,0.0,0.0,-999,-99.99,,,-99.99,,2013-02-23 11:53:00,
2013-02-23 06:02:00,54.0,-99.9,-100.00,West,262,0.0,0.0,-999,-99.99,,,-99.99,,2013-02-23 12:02:00,
2013-02-23 06:11:00,54.0,-99.9,-100.00,West,262,0.0,0.0,-999,-99.99,,,-99.99,,2013-02-23 12:11:00,
2013-02-23 06:22:00,54.0,-99.9,-100.00,West,262,0.0,0.0,-999,-99.99,,,-99.99,,2013-02-23 12:22:00,
2013-02-23 06:32:00,54.0,-99.9,-100.00,West,262,0.0,0.0,-999,-99.99,,,-99.99,,2013-02-23 12:32:00,
2013-02-23 06:42:00,54.0,-99.9,-100.00,West,262,0.0,0.0,-999,-99.99,,,-99.99,,2013-02-23 12:42:00,
2013-02-23 06:53:00,54.0,-99.9,-100.00,West,262,0.0,0.0,-999,-99.99,,,-99.99,,2013-02-23 12:53:00,
2013-02-23 07:02:00,54.0,-99.9,-100.00,West,262,0.0,0.0,-999,-99.99,,,-99.99,,2013-02-23 13:02:00,
2013-02-23 07:12:00,54.0,-99.9,-100.00,West,262,0.0,0.0,-999,-99.99,,,-99.99,,2013-02-23 13:12:00,
2013-02-23 07:22:00,54.0,-99.9,-100.00,West,262,0.0,0.0,-999,-99.99,,,-99.99,,2013-02-23 13:22:00,
2013-02-23 07:32:00,54.0,-99.9,-100.00,East,81,0.0,2.0,-999,-99.99,,,-99.99,,2013-02-23 13:32:00,
2013-02-23 07:42:00,54.0,-99.9,-100.00,East,81,0.0,0.0,-999,-99.99,,,-99.99,,2013-02-23 13:42:00,
2013-02-23 07:52:00,54.0,-99.9,-100.00,East,81,0.0,0.0,-999,-99.99,,,-99.99,,2013-02-23 13:52:00,
2013-02-23 08:02:00,54.0,-99.9,-100.00,NNE,21,0.0,0.0,-999,-99.99,,,-99.99,,2013-02-23 14:02:00,
2013-02-23 08:11:00,54.0,-99.9,-100.00,NNE,21,0.0,0.0,-999,-99.99,,,-99.99,,2013-02-23 14:11:00,
2013-02-23 08:22:00,54.0,-99.9,-100.00,NE,36,0.0,2.0,-999,-99.99,,,-99.99,,2013-02-23 14:22:00,
2013-02-23 08:33:00,54.0,-99.9,-100.00,NE,49,0.0,3.0,-999,-99.99,,,-99.99,,2013-02-23 14:33:00,
2013-02-23 08:42:00,54.0,-99.9,-100.00,NE,49,0.0,3.0,-999,-99.99,,,-99.99,,2013-02-23 14:42:00,
2013-02-23 08:52:00,55.0,-99.9,-100.00,NNE,22,1.0,3.0,-999,-99.99,,,-99.99,,2013-02-23 14:52:00,
2013-02-23 09:02:00,55.0,-99.9,-100.00,NNE,22,0.0,0.0,-999,-99.99,,,-99.99,,2013-02-23 15:02:00,
2013-02-23 09:11:00,55.0,-99.9,-100.00,NNE,22,0.0,0.0,-999,-99.99,,,-99.99,,2013-02-23 15:11:00,
2013-02-23 09:22:00,56.0,-99.9,-100.00,NNE,22,0.0,0.0,-999,-99.99,,,-99.99,,2013-02-23 15:22:00,
2013-02-23 09:32:00,55.0,-99.9,-100.00,NE,40,0.0,4.0,-999,-99.99,,,-99.99,,2013-02-23 15:32:00,
2013-02-23 09:42:00,55.0,-99.9,-100.00,NE,40,0.0,4.0,-999,-99.99,,,-99.99,,2013-02-23 15:42:00,
2013-02-23 09:52:00,56.0,-99.9,-100.00,NNW,333,0.0,2.0,-999,-99.99,,,-99.99,,2013-02-23 15:52:00,
2013-02-23 10:01:00,56.0,-99.9,-100.00,NNW,333,0.0,0.0,-999,-99.99,,,-99.99,,2013-02-23 16:01:00,
2013-02-23 10:11:00,56.0,-99.9,-100.00,NNW,333,0.0,0.0,-999,-99.99,,,-99.99,,2013-02-23 16:11:00,
2013-02-23 10:22:00,56.0,-99.9,-100.00,NNE,16,0.0,0.0,-999,-99.99,,,-99.99,,2013-02-23 16:22:00,
2013-02-23 10:32:00,56.0,-99.9,-100.00,NNE,16,0.0,0.0,-999,-99.99,,,-99.99,,2013-02-23 16:32:00,
2013-02-23 10:42:00,56.0,-99.9,-100.00,NNE,16,0.0,0.0,-999,-99.99,,,-99.99,,2013-02-23 16:42:00,
2013-02-23 10:52:00,56.0,-99.9,-100.00,NNE,16,0.0,0.0,-999,-99.99,,,-99.99,,2013-02-23 16:52:00,
2013-02-23 11:01:00,57.0,-99.9,-100.00,NE,37,0.0,0.0,-999,-99.99,,,-99.99,,2013-02-23 17:01:00,
2013-02-23 11:11:00,57.0,-99.9,-100.00,ENE,57,1.0,2.0,-999,-99.99,,,-99.99,,2013-02-23 17:11:00,
2013-02-23 11:22:00,57.0,-99.9,-100.00,ENE,57,1.0,2.0,-999,-99.99,,,-99.99,,2013-02-23 17:22:00,
2013-02-23 11:32:00,58.0,-99.9,-100.00,NNE,30,0.0,0.0,-999,-99.99,,,-99.99,,2013-02-23 17:32:00,
2013-02-23 11:42:00,58.0,-99.9,-100.00,NNE,30,0.0,0.0,-999,-99.99,,,-99.99,,2013-02-23 17:42:00,
2013-02-23 11:52:00,58.0,-99.9,-100.00,NNE,30,0.0,0.0,-999,-99.99,,,-99.99,,2013-02-23 17:52:00,
2013-02-23 12:02:00,57.0,-99.9,-100.00,NNE,15,0.0,1.0,-999,-99.99,,,-99.99,,2013-02-23 18:02:00,
2013-02-23 12:12:00,57.0,-99.9,-100.00,NNE,15,0.0,1.0,-999,-99.99,,,-99.99,,2013-02-23 18:12:00,
2013-02-23 12:22:00,57.0,-99.9,-100.00,NNW,336,0.0,2.0,-999,-99.99,,,-99.99,,2013-02-23 18:22:00,
2013-02-23 12:32:00,57.0,-99.9,-100.00,NNW,337,0.0,0.0,-999,-99.99,,,-99.99,,2013-02-23 18:32:00,
2013-02-23 12:42:00,57.0,-99.9,-100.00,NNW,337,0.0,0.0,-999,-99.99,,,-99.99,,2013-02-23 18:42:00,
2013-02-23 12:52:00,57.0,-99.9,-100.00,NW,322,0.0,0.0,-999,-99.99,,,-99.99,,2013-02-23 18:52:00,
2013-02-23 13:01:00,58.0,-99.9,-100.00,NW,322,0.0,0.0,-999,-99.99,,,-99.99,,2013-02-23 19:01:00,
2013-02-23 13:12:00,58.0,-99.9,-100.00,NW,322,0.0,0.0,-999,-99.99,,,-99.99,,2013-02-23 19:12:00,
2013-02-23 13:22:00,58.0,-99.9,-100.00,NW,322,0.0,0.0,-999,-99.99,,,-99.99,,2013-02-23 19:22:00,
2013-02-23 13:32:00,57.0,-99.9,-100.00,WNW,303,0.0,0.0,-999,-99.99,,,-99.99,,2013-02-23 19:32:00,
2013-02-23 13:42:00,57.0,-99.9,-100.00,WNW,303,0.0,0.0,-999,-99.99,,,-99.99,,2013-02-23 19:42:00,
2013-02-23 13:52:00,57.0,-99.9,-100.00,WNW,303,0.0,0.0,-999,-99.99,,,-99.99,,2013-02-23 19:52:00,
2013-02-23 14:01:00,57.0,-99.9,-100.00,WNW,303,0.0,0.0,-999,-99.99,,,-99.99,,2013-02-23 20:01:00,
2013-02-23 14:11:00,57.0,-99.9,-100.00,WNW,303,0.0,0.0,-999,-99.99,,,-99.99,,2013-02-23 20:11:00,
2013-02-23 14:22:00,57.0,-99.9,-100.00,NW,306,0.0,0.0,-999,-99.99,,,-99.99,,2013-02-23 20:22:00,
2013-02-23 14:32:00,57.0,-99.9,-100.00,ENE,70,0.0,2.0,-999,-99.99,,,-99.99,,2013-02-23 20:32:00,
2013-02-23 14:42:00,57.0,-99.9,-100.00,ENE,70,0.0,2.0,-999,-99.99,,,-99.99,,2013-02-23 20:42:00,
2013-02-23 14:53:00,57.0,-99.9,-100.00,ENE,70,0.0,0.0,-999,-99.99,,,-99.99,,2013-02-23 20:53:00,
2013-02-23 15:02:00,56.0,-99.9,-100.00,ENE,60,0.0,0.0,-999,-99.99,,,-99.99,,2013-02-23 21:02:00,
2013-02-23 15:12:00,56.0,-99.9,-100.00,ENE,60,0.0,0.0,-999,-99.99,,,-99.99,,2013-02-23 21:12:00,
2013-02-23 15:22:00,56.0,-99.9,-100.00,ENE,60,0.0,0.0,-999,-99.99,,,-99.99,,2013-02-23 21:22:00,
2013-02-23 15:32:00,56.0,-99.9,-100.00,ENE,60,0.0,0.0,-999,-99.99,,,-99.99,,2013-02-23 21:32:00,
2013-02-23 15:42:00,56.0,-99.9,-100.00,ENE,60,0.0,0.0,-999,-99.99,,,-99.99,,2013-02-23 21:42:00,
2013-02-23 15:52:00,56.0,-99.9,-100.00,NNW,330,0.0,1.0,-999,-99.99,,,-99.99,,2013-02-23 21:52:00,
2013-02-23 16:02:00,56.0,-99.9,-100.00,WNW,291,0.0,0.0,-999,-99.99,,,-99.99,,2013-02-23 22:02:00,
2013-02-23 16:11:00,57.0,-99.9,-100.00,NE,42,0.0,0.0,-999,-99.99,,,-99.99,,2013-02-23 22:11:00,
2013-02-23 16:22:00,57.0,-99.9,-100.00,NE,42,0.0,0.0,-999,-99.99,,,-99.99,,2013-02-23 22:22:00,
2013-02-23 16:32:00,57.0,-99.9,-100.00,NE,36,0.0,0.0,-999,-99.99,,,-99.99,,2013-02-23 22:32:00,
2013-02-23 16:42:00,57.0,-99.9,-100.00,NE,36,0.0,0.0,-999,-99.99,,,-99.99,,2013-02-23 22:42:00,
2013-02-23 16:52:00,57.0,-99.9,-100.00,NE,36,0.0,0.0,-999,-99.99,,,-99.99,,2013-02-23 22:52:00,
2013-02-23 17:02:00,57.0,-99.9,-100.00,NE,36,0.0,0.0,-999,-99.99,,,-99.99,,2013-02-23 23:02:00,
2013-02-23 17:11:00,57.0,-99.9,-100.00,NE,36,0.0,0.0,-999,-99.99,,,-99.99,,2013-02-23 23:11:00,
2013-02-23 17:22:00,57.0,-99.9,-100.00,NE,36,0.0,0.0,-999,-99.99,,,-99.99,,2013-02-23 23:22:00,
2013-02-23 17:32:00,57.0,-99.9,-100.00,NE,36,0.0,0.0,-999,-99.99,,,-99.99,,2013-02-23 23:32:00,
2013-02-23 17:42:00,57.0,-99.9,-100.00,NE,36,0.0,0.0,-999,-99.99,,,-99.99,,2013-02-23 23:42:00,
2013-02-23 17:52:00,57.0,-99.9,-100.00,NE,36,0.0,0.0,-999,-99.99,,,-99.99,,2013-02-23 23:52:00,
2013-02-23 18:02:00,57.0,-99.9,-100.00,NE,36,0.0,0.0,-999,-99.99,,,-99.99,,2013-02-24 00:02:00,
2013-02-23 18:11:00,57.0,-99.9,-100.00,NE,36,0.0,0.0,-999,-99.99,,,-99.99,,2013-02-24 00:11:00,
2013-02-23 18:22:00,57.0,-99.9,-100.00,NE,36,0.0,0.0,-999,-99.99,,,-99.99,,2013-02-24 00:22:00,
2013-02-23 18:32:00,57.0,-99.9,-100.00,NE,36,0.0,0.0,-999,-99.99,,,-99.99,,2013-02-24 00:32:00,
2013-02-23 18:42:00,57.0,-99.9,-100.00,NE,36,0.0,0.0,-999,-99.99,,,-99.99,,2013-02-24 00:42:00,
2013-02-23 18:52:00,56.0,-99.9,-100.00,NE,36,0.0,0.0,-999,-99.99,,,-99.99,,2013-02-24 00:52:00,
2013-02-23 19:01:00,56.0,-99.9,-100.00,North,11,0.0,2.0,-999,-99.99,,,-99.99,,2013-02-24 01:01:00,
2013-02-23 19:11:00,56.0,-99.9,-100.00,North,11,0.0,2.0,-999,-99.99,,,-99.99,,2013-02-24 01:11:00,
2013-02-23 19:22:00,56.0,-99.9,-100.00,North,11,0.0,0.0,-999,-99.99,,,-99.99,,2013-02-24 01:22:00,
2013-02-23 19:32:00,56.0,-99.9,-100.00,North,11,0.0,0.0,-999,-99.99,,,-99.99,,2013-02-24 01:32:00,
2013-02-23 19:42:00,56.0,-99.9,-100.00,North,11,0.0,0.0,-999,-99.99,,,-99.99,,2013-02-24 01:42:00,
2013-02-23 19:52:00,56.0,-99.9,-100.00,North,11,0.0,0.0,-999,-99.99,,,-99.99,,2013-02-24 01:52:00,
2013-02-23 20:01:00,55.0,-99.9,-100.00,North,11,0.0,0.0,-999,-99.99,,,-99.99,,2013-02-24 02:01:00,
2013-02-23 20:12:00,55.0,-99.9,-100.00,North,11,0.0,0.0,-999,-99.99,,,-99.99,,2013-02-24 02:12:00,
2013-02-23 20:22:00,55.0,-99.9,-100.00,NE,47,0.0,0.0,-999,-99.99,,,-99.99,,2013-02-24 02:22:00,
2013-02-23 20:32:00,55.0,-99.9,-100.00,NW,306,0.0,0.0,-999,-99.99,,,-99.99,,2013-02-24 02:32:00,
2013-02-23 20:42:00,55.0,-99.9,-100.00,NW,306,0.0,0.0,-999,-99.99,,,-99.99,,2013-02-24 02:42:00,
2013-02-23 20:52:00,55.0,-99.9,-100.00,NW,306,0.0,0.0,-999,-99.99,,,-99.99,,2013-02-24 02:52:00,
2013-02-23 21:02:00,54.0,-99.9,-100.00,NW,306,0.0,0.0,-999,-99.99,,,-99.99,,2013-02-24 03:02:00,
2013-02-23 21:12:00,54.0,-99.9,-100.00,NW,306,0.0,0.0,-999,-99.99,,,-99.99,,2013-02-24 03:12:00,
2013-02-23 21:22:00,54.0,-99.9,-100.00,NW,306,0.0,0.0,-999,-99.99,,,-99.99,,2013-02-24 03:22:00,
2013-02-23 21:32:00,54.0,-99.9,-100.00,NW,306,0.0,0.0,-999,-99.99,,,-99.99,,2013-02-24 03:32:00,
2013-02-23 21:42:00,54.0,-99.9,-100.00,NW,306,0.0,0.0,-999,-99.99,,,-99.99,,2013-02-24 03:42:00,
2013-02-23 21:52:00,54.0,-99.9,-100.00,NNW,337,0.0,0.0,-999,-99.99,,,-99.99,,2013-02-24 03:52:00,
2013-02-23 22:02:00,54.0,-99.9,-100.00,North,351,0.0,0.0,-999,-99.99,,,-99.99,,2013-02-24 04:02:00,
2013-02-23 22:11:00,54.0,-99.9,-100.00,North,351,0.0,0.0,-999,-99.99,,,-99.99,,2013-02-24 04:11:00,
2013-02-23 22:22:00,53.0,-99.9,-100.00,North,352,0.0,0.0,-999,-99.99,,,-99.99,,2013-02-24 04:22:00,
2013-02-23 22:32:00,53.0,-99.9,-100.00,NNW,341,0.0,0.0,-999,-99.99,,,-99.99,,2013-02-24 04:32:00,
2013-02-23 22:42:00,53.0,-99.9,-100.00,NNW,341,0.0,0.0,-999,-99.99,,,-99.99,,2013-02-24 04:42:00,
2013-02-23 22:52:00,53.0,-99.9,-100.00,North,1,0.0,3.0,-999,-99.99,,,-99.99,,2013-02-24 04:52:00,
2013-02-23 23:01:00,53.0,-99.9,-100.00,North,352,0.0,0.0,-999,-99.99,,,-99.99,,2013-02-24 05:01:00,
2013-02-23 23:11:00,53.0,-99.9,-100.00,North,352,0.0,0.0,-999,-99.99,,,-99.99,,2013-02-24 05:11:00,
2013-02-23 23:22:00,53.0,-99.9,-100.00,NW,307,0.0,1.0,-999,-99.99,,,-99.99,,2013-02-24 05:22:00,
2013-02-23 23:32:00,52.0,-99.9,-100.00,NW,307,0.0,0.0,-999,-99.99,,,-99.99,,2013-02-24 05:32:00,
2013-02-23 23:42:00,52.0,-99.9,-100.00,NW,307,0.0,0.0,-999,-99.99,,,-99.99,,2013-02-24 05:42:00,
2013-02-23 23:52:00,52.0,-99.9,-100.00,NW,307,0.0,0.0,-999,-99.99,,,-99.99,,2013-02-24 05:52:00,